Location: Mat�lon
(46.2791°N, 7.1028°E)
Time: 15:46:01
(UTC+00:00)

COSMOS 2406 - Pass Details

Date: 18 September 2020
Orbit: 844 x 863 km, 71.0° (Epoch: 29 October)

Event Time Altitude Azimuth Distance (km) Brightness Sun altitude
Rises 20:47:26 0° 333° (NNW) 3,413 7.3 -31.0°
Reaches altitude 10° 20:49:54 10° 334° (NNW) 2,474 6.4 -31.3°
Enters shadow 20:54:19 56° 336° (NNW) 998 3.7 -31.9°
